EW4052 Weather Reports


time (UTC)temp
C
wind
direction
speed
KPH
gust
KPH
rain 1hr
cm
rain 24hr
cm
rain mn
cm
humidity
%
barometer
mb
20260505230011 11 266 16.1 32.2 0.00 0.00 0.00 44 1010.2
20260505224511 11 235 17.7 27.4 0.00 0.00 0.00 43 1010.1
20260505223010 11 299 12.9 25.7 0.00 0.00 0.00 44 1010.0
20260505221609 11 298 11.3 22.5 0.00 0.00 0.00 43 1009.9
20260505220009 11 281 17.7 25.7 0.00 0.00 0.00 45 1010.0
20260505214509 11 264 19.3 27.4 0.00 0.00 0.00 44 1010.1
20260505213008 11 284 17.7 29.0 0.00 0.00 0.00 44 1010.2
20260505211506 11 252 19.3 27.4 0.00 0.00 0.00 47 1010.2
20260505210006 11 273 17.7 29.0 0.00 0.00 0.00 45 1010.0
20260505204506 11 250 20.9 30.6 0.00 0.00 0.00 46 1010.1
20260505203013 11 247 19.3 25.7 0.00 0.00 0.00 46 1010.3
20260505201504 11 248 22.5 27.4 0.00 0.00 0.00 46 1010.3
20260505200004 12 296 6.4 30.6 0.00 0.00 0.00 43 1010.3
20260505194503 12 286 14.5 27.4 0.00 0.00 0.00 43 1010.4
20260505193000 11 240 8.0 29.0 0.00 0.00 0.00 39 1010.4
20260505191600 11 273 1.6 24.1 0.00 0.00 0.00 36 1010.5
20260505190059 12 265 1.6 12.9 0.00 0.00 0.00 39 1010.6
20260505184556 11 265 1.6 25.7 0.00 0.00 0.00 41 1010.7
20260505183056 10 250 8.0 32.2 0.00 0.00 0.00 40 1010.6
20260505181554 11 280 8.0 22.5 0.00 0.00 0.00 43 1010.6
20260505180107 10 262 12.9 24.1 0.00 0.00 0.00 47 1010.7
20260505174603 10 236 9.7 22.5 0.00 0.00 0.00 43 1010.8
20260505173052 10 252 4.8 24.1 0.00 0.00 0.00 43 1010.7
20260505171550 11 300 4.8 20.9 0.00 0.00 0.00 45 1010.6
20260505170049 10 236 8.0 20.9 0.00 0.00 0.00 41 1010.6
20260505164550 10 241 14.5 27.4 0.00 0.00 0.00 46 1010.7
20260505163049 10 253 11.3 24.1 0.00 0.00 0.00 46 1010.5
20260505161548 10 255 6.4 14.5 0.00 0.00 0.00 47 1010.5
20260505153042 10 247 6.4 12.9 0.00 0.00 0.00 46 1010.6
20260505151537 9 263 0.0 9.7 0.00 0.00 0.00 49 1010.7
20260505124531 5 252 6.4 11.3 0.00 0.00 0.00 67 1010.0
20260505123023 5 250 4.8 9.7 0.00 0.00 0.00 67 1009.8
20260505121522 4 242 3.2 8.0 0.00 0.00 0.00 70 1009.6
20260505120020 3 240 0.0 0.0 0.00 0.00 0.00 68 1009.3
20260505114518 3 240 0.0 0.0 0.00 0.00 0.00 68 1009.0
20260505113116 2 240 0.0 0.0 0.00 0.00 0.00 68 1008.9
20260505111513 2 240 0.0 0.0 0.00 0.00 0.00 66 1008.6
20260505101559 5 259 8.0 14.5 0.00 0.00 0.00 63 1007.8
20260505100056 5 259 9.7 16.1 0.00 0.00 0.00 62 1007.5
20260505094554 6 254 11.3 16.1 0.00 0.00 0.00 62 1007.3
20260505093050 6 248 6.4 16.1 0.00 0.00 0.00 62 1007.3
20260505091606 6 265 9.7 17.7 0.00 0.00 0.00 62 1007.1
20260505090046 6 263 9.7 17.7 0.00 0.00 0.00 62 1007.1
20260505084542 6 260 8.0 14.5 0.00 0.00 0.00 60 1006.9
20260505083039 7 263 11.3 14.5 0.00 0.00 0.00 61 1007.0
20260505081539 7 249 8.0 16.1 0.00 0.00 0.00 60 1006.8
20260505080034 7 246 11.3 16.1 0.00 0.00 0.00 57 1006.8
20260505074532 7 256 9.7 16.1 0.00 0.00 0.00 57 1006.7
20260505073032 7 269 11.3 16.1 0.00 0.00 0.00 56 1006.8
20260505071528 7 260 11.3 17.7 0.00 0.00 0.00 58 1006.6
20260505070026 7 252 12.9 16.1 0.00 0.00 0.00 56 1006.5
20260505064523 7 264 11.3 19.3 0.00 0.00 0.00 56 1006.4
20260505063019 8 269 11.3 17.7 0.00 0.00 0.00 53 1006.5
20260505061516 8 262 9.7 17.7 0.00 0.00 0.00 56 1006.4
20260505060015 8 269 4.8 14.5 0.00 0.00 0.00 56 1006.4
20260505054512 8 269 3.2 17.7 0.00 0.00 0.00 55 1006.3
20260505053009 8 275 11.3 17.7 0.00 0.00 0.00 55 1006.2
20260505051522 8 274 9.7 19.3 0.00 0.00 0.00 55 1006.3
20260505041606 9 272 17.7 27.4 0.00 0.00 0.00 56 1006.4
20260505040104 10 288 17.7 25.7 0.00 0.00 0.00 55 1006.3
20260505034557 10 271 17.7 29.0 0.00 0.00 0.00 54 1006.2
20260505033056 10 277 16.1 27.4 0.00 0.00 0.00 53 1006.1
20260505031558 10 271 20.9 32.2 0.00 0.00 0.00 52 1006.0
20260505030053 10 265 22.5 32.2 0.00 0.00 0.00 51 1006.0
20260505024553 11 278 22.5 35.4 0.00 0.00 0.00 52 1005.7
20260505023046 11 277 22.5 30.6 0.00 0.00 0.00 53 1005.3
20260505021549 11 270 24.1 38.6 0.00 0.00 0.00 52 1005.0
20260505020041 11 268 22.5 37.0 0.00 0.00 0.00 52 1004.6
20260505014538 11 279 27.4 38.6 0.00 0.00 0.00 51 1004.2
20260505013035 11 273 24.1 33.8 0.00 0.00 0.00 53 1004.0
20260505011534 12 274 24.1 46.7 0.00 0.00 0.00 53 1003.8
20260505010033 12 257 33.8 43.5 0.00 0.00 0.00 52 1003.5
20260505004530 13 269 29.0 38.6 0.00 0.00 0.00 48 1003.0
20260505003030 13 248 25.7 43.5 0.00 0.00 0.00 48 1002.8
20260505001529 14 264 27.4 38.6 0.00 0.00 0.00 45 1002.3
20260505000030 14 250 32.2 41.8 0.00 0.00 0.00 46 1002.3
20260504234533 14 264 35.4 46.7 0.00 0.00 0.00 42 1002.3
20260504233027 15 235 30.6 38.6 0.00 0.00 0.00 42 1002.4
20260504231526 15 242 25.7 43.5 0.00 0.00 0.00 43 1002.4